Regional Weather Roundup
Issued by NWS

Home | Current Version | Previous Version | Text Only | Print | Product List | Glossary Off
Versions: 1 2 3 4 5 6 7 8 9 10 11 12 13 14 15 16 17 18 19 20 21 22 23 24 25 26 27 28 29 30 31 32 33 34 35 36 37 38 39 40 41 42 43 44 45 46 47 48 49 50

000
ASUS43 KLOT 180910
RWRIL

ILLINOIS REGIONAL WEATHER ROUNDUP
NATIONAL WEATHER SERVICE CHICAGO/ROMEOVILLE IL
300 AM CST THU DEC 18 2014

NOTE: "FAIR" INDICATES FEW OR NO CLOUDS BELOW 12,000 FEET WITH NO
SIGNIFICANT WEATHER AND/OR OBSTRUCTIONS TO VISIBILITY.

* THESE STATIONS ARE NOT UNDER NWS QUALITY CONTROL. THEY ALSO MAY NOT
  REPORT WEATHER SUCH AS PRECIPITATION OR FOG.

ILZ001-002-007-009-015-016-024-181000-
NORTHWEST ILLINOIS

CITY           SKY/WX    TMP DP  RH WIND       PRES   REMARKS
MOLINE         CLEAR     17  13  84 CALM      30.31S
STERLING*      PTCLDY    18  12  79 CALM      30.30R
SAVANNA*       PTCLDY    18  15  90 CALM      30.30R
$$

ILZ003-004-008-010-011-017-018-181000-
NORTH CENTRAL ILLINOIS

CITY           SKY/WX    TMP DP  RH WIND       PRES   REMARKS
ROCKFORD       CLOUDY    22  14  71 N3        30.30S
FREEPORT*      CLEAR     16  13  90 CALM      30.30R
ROCHELLE*      CLOUDY    19  15  83 CALM      30.29S
DE KALB*       CLOUDY    20  15  82 CALM      30.27S
PERU*          PTCLDY    19  16  87 CALM      30.30F
$$

ILZ005-006-012>014-019>023-181000-
NORTHEAST ILLINOIS

CITY           SKY/WX    TMP DP  RH WIND       PRES   REMARKS
CHICAGO-OHARE  PTCLDY    21  15  78 N6        30.27F WCI  13
CHICAGO-MIDWAY CLOUDY    26  16  65 CALM      30.28F
AURORA         CLOUDY    23  15  71 CALM      30.28S
LANSING*       CLOUDY    25  17  70 W3        30.29S
JOLIET*        CLOUDY    23  17  79 CALM      30.29F
WAUKEGAN       CLEAR     18  13  80 NW5       30.26F WCI  11
DUPAGE AIRPORT CLOUDY    23  15  71 CALM      30.27S
KANKAKEE*      CLOUDY    25  19  78 CALM      30.30F
WHEELING       PTCLDY    20  14  77 NW5       30.30S WCI  13
MORRIS*        CLOUDY    20  19  94 CALM      30.29S
ROMEOVILLE*    CLOUDY    23  17  77 NW3       30.29R
$$

LMZ740>746-181000-
SOUTHERN LAKE MICHIGAN

STATION/POSITION SKY/WX   TEMP    WIND        PRES    VSBY  WAVE
                          AIR SEA DIR/SP/G                  HT/PER
                          (F)     (DEG/KT/KT) (MB)    (MI)  (FT/S)
WAUKEGAN HARBOR            21     330/  7/ 14   N/A
HARRISON CRIB              24     300/  5/  7   N/A
BURNHAM HARBOR             25     280/  4/  8   N/A
CALUMET HARBOR             25     290/  3/  5 1024.1R
$$

ILZ025>027-034>036-040-047-049-050-058-095>099-181000-
WEST-CENTRAL ILLINOIS

CITY           SKY/WX    TMP DP  RH WIND       PRES   REMARKS
QUINCY         CLOUDY    26  20  77 NE3       30.29R
GALESBURG*     PTCLDY    16  14  93 CALM      30.29F
MACOMB*        PTCLDY    20  18  91 N3        30.31F
JACKSONVILLE*  CLOUDY    27  24  87 CALM      30.29R
PITTSFIELD*    CLOUDY    28  23  84 CALM      30.30R
$$

ILZ028>032-037-038-041>044-048-051>054-059>061-181000-
CENTRAL ILLINOIS

CITY           SKY/WX    TMP DP  RH WIND       PRES   REMARKS
PONTIAC        MOCLDY    19  17  93 CALM      30.30F
BLOOMINGTON    CLOUDY    22  20  92 CALM      30.28F
DECATUR        CLOUDY    24  20  84 E5        30.28F WCI  18
PEORIA         MOCLDY    21  17  84 CALM      30.30F
LACON*         PTCLDY    16  13  89 CALM      30.30F
LINCOLN*       CLOUDY    24  21  89 CALM      30.30F
SPRINGFIELD    CLOUDY    23  20  88 CALM      30.30S
TAYLORVILLE    CLOUDY    25  21  86 CALM      30.28F
$$

ILZ033-039-045-046-055>057-062-063-181000-
EAST-CENTRAL ILLINOIS

CITY           SKY/WX    TMP DP  RH WIND       PRES   REMARKS
CHAMPAIGN      CLOUDY    26  19  74 NW3       30.30S
DANVILLE*      CLOUDY    24  19  80 CALM      30.27F
RANTOUL*       CLOUDY    26  20  79 CALM      30.28F
MATTOON        CLOUDY    24  18  77 E3        30.28F
PARIS*         CLOUDY    26  21  81 CALM      30.31S
$$

ILZ079-100>102-181000-
SOUTHWEST ILLINOIS

CITY           SKY/WX    TMP DP  RH WIND       PRES   REMARKS
ALTON          CLOUDY    28  23  81 E6        30.29S WCI  22
BELLEVILLE     CLOUDY    29  25  83 E3        30.28S
CAHOKIA*       CLOUDY    31  26  82 E5        30.29S WCI  26
SPARTA*        CLOUDY    30  27  88 CALM      30.31R
$$

ILZ064>066-069>071-074>076-080>082-084>086-088>090-092>094-181000-
SOUTH-CENTRAL ILLINOIS

CITY           SKY/WX    TMP DP  RH WIND       PRES   REMARKS
CARBONDALE     MIX PCPN  32  26  78 E3        30.28S
CAIRO*         LGT SNOW  36  35  98 SE3       30.27F
EFFINGHAM*     CLOUDY    26  20  79 NE3       30.30F
MARION         FLURRIES  32  27  80 E3        30.27F
MT. VERNON     CLOUDY    28  21  74 NE9       30.26F WCI  20
CENTRALIA*     CLOUDY    28  24  84 NE5       30.28S WCI  23
SALEM*         CLOUDY    29  25  84 NE6       30.28F WCI  23
METROPOLIS*    LGT RAIN  33  33 100 CALM      30.27R
$$

ILZ067-068-072-073-078-083-087-091-181000-
SOUTHEAST ILLINOIS

CITY           SKY/WX    TMP DP  RH WIND       PRES   REMARKS
LAWRENCEVILLE  CLOUDY    26  21  81 NE6       30.31F WCI  19
FLORA*         CLOUDY    26  22  84 NE7       30.29F WCI  19
FAIRFIELD*     CLOUDY    28  24  85 NE6       30.27F WCI  22
HARRISBURG*    CLOUDY    31  27  86 E7        30.28F WCI  24
ROBINSON*      CLOUDY    26  21  83 CALM      30.32F
CARMI*         CLOUDY    31  29  90 N5        30.29F WCI  26
$$

ABBREVIATIONS USED IN REMARKS
   TC - TEMPERATURE IN CELSIUS
  WCI - WIND CHILL INDEX
   HX - HEAT INDEX
  VSB - VISIBILITY
$$




USA.gov is the U.S. government's official web portal to all federal, state and local government web resources and services.